Ontario, OR

4:41 PM MST on February 09, 2016 (GMT -0700)
Ontario Municipal

Weather History for KONO - September, 2013

Change the Weather History Date:

Wednesday, September 25, 2013

  Actual Average Record
Temperature  
Mean Temperature 52 °F 59 °F  
Max Temperature 59 °F 77 °F 94 °F (2009)
Min Temperature 45 °F 41 °F 25 °F (1984)
Degree Days  
Heating Degree Days 13 6  
Month to date heating degree days 51 80  
Since 1 July heating degree days 51 96  
Cooling Degree Days 0 1  
Month to date cooling degree days 127 56  
Year to date cooling degree days 1299 849  
Growing Degree Days 2 (Base 50)    
Moisture  
Dew Point 39 °F    
Average Humidity 62    
Maximum Humidity 77    
Minimum Humidity 47    
Precipitation  
Precipitation 0.01 in 0.02 in 0.39 in (1998)
Month to date precipitation 0.38 0.33  
Year to date precipitation 2.99 6.57  
Sea Level Pressure  
Sea Level Pressure 29.77 in    
Wind  
Wind Speed 11 mph (WNW)    
Max Wind Speed 23 mph    
Max Gust Speed 29 mph    
Visibility 10 miles    
Events Rain    
T = Trace of Precipitation, MM = Missing Value Source: NWS Daily Summary

Daily Weather History Graph

Daily Weather History Graph

Search for Another Location

Airport or City:

Trip Planner

Search our weather history database for the weather conditions in past years. The results will help you decide how hot, cold, wet, or windy it might be!

Date:

Astronomy

Sep. 25, 2013 Rise Set
Actual Time 7:39 AM MDT 7:39 PM MDT
Civil Twilight 7:10 AM MDT 8:08 PM MDT
Nautical Twilight 6:36 AM MDT 8:41 PM MDT
Astronomical Twilight 6:02 AM MDT 9:15 PM MDT
Moon 11:38 PM MDT (9/25) 1:59 PM MDT (9/25)
Length of Visible Light 12h 57m
Length of Day
12h 00m
Waning Gibbous, 63% of the Moon is Illuminated
Sep 25
Waning Gibbous
Sep 26
Last Quarter
Oct 4
New
Oct 11
First Quarter
Oct 18
Full

Hourly Weather History & Observations

Time (MDT) Temp. Dew Point Humidity Pressure Visibility Wind Dir Wind Speed Gust Speed Precip Events Conditions
12:53 AM 48.9 °F 41.0 °F 74% 29.81 in 10.0 mi North 4.6 mph - N/A   Clear
1:53 AM 48.0 °F 39.9 °F 74% 29.79 in 10.0 mi SW 3.5 mph - N/A   Clear
2:53 AM 48.0 °F 39.0 °F 71% 29.79 in 10.0 mi WSW 4.6 mph - N/A   Partly Cloudy
3:53 AM 46.0 °F 39.9 °F 79% 29.77 in 10.0 mi Calm Calm - N/A   Mostly Cloudy
4:53 AM 48.0 °F 39.9 °F 74% 29.75 in 10.0 mi West 3.5 mph - N/A   Scattered Clouds
5:53 AM 48.0 °F 39.9 °F 74% 29.74 in 10.0 mi West 5.8 mph - N/A   Overcast
6:53 AM 48.0 °F 39.0 °F 71% 29.73 in 10.0 mi West 8.1 mph - N/A   Mostly Cloudy
7:53 AM 48.9 °F 39.0 °F 69% 29.74 in 10.0 mi West 5.8 mph - N/A   Overcast
8:53 AM 48.9 °F 39.0 °F 69% 29.75 in 10.0 mi West 8.1 mph - N/A   Overcast
9:53 AM 48.9 °F 39.9 °F 71% 29.75 in 10.0 mi WNW 10.4 mph - N/A   Overcast
10:53 AM 51.1 °F 41.0 °F 68% 29.76 in 10.0 mi NW 12.7 mph - N/A   Overcast
11:53 AM 52.0 °F 41.0 °F 66% 29.76 in 10.0 mi NW 12.7 mph - 0.00 in   Overcast
12:53 PM 52.0 °F 42.1 °F 69% 29.76 in 10.0 mi NNW 11.5 mph - 0.01 in Rain Light Rain
1:53 PM 55.0 °F 39.9 °F 57% 29.75 in 10.0 mi WNW 12.7 mph 18.4 mph 0.00 in   Overcast
2:53 PM 55.9 °F 39.0 °F 53% 29.75 in 10.0 mi NNW 9.2 mph - N/A   Overcast
3:53 PM 57.0 °F 39.0 °F 51% 29.76 in 10.0 mi NW 16.1 mph 23.0 mph N/A   Overcast
4:53 PM 57.0 °F 37.9 °F 49% 29.76 in 10.0 mi NW 18.4 mph 25.3 mph N/A   Overcast
5:53 PM 55.9 °F 39.0 °F 53% 29.78 in 10.0 mi NW 16.1 mph 21.9 mph N/A   Overcast
6:53 PM 54.0 °F 37.9 °F 55% 29.79 in 10.0 mi NNW 16.1 mph 25.3 mph 0.00 in   Overcast
7:53 PM 53.1 °F 37.9 °F 57% 29.80 in 10.0 mi NW 12.7 mph - N/A   Overcast
8:53 PM 53.1 °F 37.9 °F 57% 29.81 in 10.0 mi NW 15.0 mph - N/A   Overcast
9:53 PM 52.0 °F 39.0 °F 61% 29.82 in 10.0 mi NW 13.8 mph - N/A   Overcast
10:53 PM 51.1 °F 37.9 °F 61% 29.82 in 10.0 mi WNW 12.7 mph - N/A   Scattered Clouds
11:53 PM 52.0 °F 37.0 °F 57% 29.81 in 10.0 mi NW 21.9 mph 27.6 mph N/A   Mostly Cloudy